CALSPHERE 1 1 00900U 64063C 26237.50112995 .00000493 00000+0 49148-3 0 9994 2 00900 90.2174 73.3804 0027993 82.7527 309.6876 13.76686552 80961 CALSPHERE 2 1 00902U 64063E 26237.54661000 .00000050 00000+0 62069-4 0 9993 2 00902 90.2291 77.4331 0019623 31.3596 359.3421 13.52904734865643 LCS 1 1 01361U 65034C 26237.54345361 .00000005 00000+0 -49639-3 0 9999 2 01361 32.1462 12.3471 0011692 7.1876 352.8788 9.89310620216757 TEMPSAT 1 1 01512U 65065E 26237.40831336 .00000032 00000+0 45276-4 0 9991 2 01512 90.0019 212.6002 0071430 55.2080 98.5643 13.33597399969278 CALSPHERE 4A 1 01520U 65065H 26237.63026381 .00000084 00000+0 14574-3 0 9994 2 01520 89.8942 121.7967 0067888 268.0218 121.8943 13.36288474971985 OPS 5712 (P/L 160) 1 02826U 67053A 26237.54728978 .00006261 00000+0 86625-3 0 9993 2 02826 69.9143 228.1769 0004508 283.1633 76.9012 14.78489549 76489 OPS 5712 (P/L 153) 1 02874U 67053H 26237.36927250 -.00000005 00000+0 34619-4 0 9998 2 02874 69.9761 327.0190 0004750 114.3667 245.7935 13.96836848 16454 RIGIDSPHERE 2 (LCS 4) 1 05398U 71067E 26237.57329502 .00000418 00000+0 12972-3 0 9995 2 05398 87.6244 319.5529 0059727 4.9525 355.2252 14.37941017883850 COSMOS 2493 (SKRL-756 1) 1 39490U 13078A 26237.55496875 .00003503 00000+0 26174-3 0 9996 2 39490 82.4131 193.3069 0013533 17.3252 342.8432 15.02461675688377 COSMOS 2494 (SKRL-756 2) 1 39491U 13078B 26237.49366142 .00002724 00000+0 18861-3 0 9991 2 39491 82.4135 182.4669 0014855 336.0457 24.0077 15.05220346689234